www.pogodaiklimat.ru

Погода и климат >> Архив погоды >> Мексика >> Эрмосильо


ПОГОДА в Эрмосильо

  • Прогноз погоды в Эрмосильо
  • Монитор погоды в Эрмосильо

АРХИВ ПОГОДЫ в Эрмосильо

Время (UTC), дата Ветер
(напр.,м/с)
 
Видим.   Явления Облачность Т
(С)
Тd
(С)
f
(%)
Тe
(С)
Тes
(С)
Комфортность P
(гПа)
Po
(гПа)
Тmin
(С)
Tmax
(С)
R
(мм)
R24
(мм)
S
(см)
18 17.06 ЮВ 4 12 км ясно +36.0 +19.0 37 +41 +54 опасность
перегрева
1010.3 986.5 +19.5 +36.0
21 17.06 ЮВ 1 12 км ясно +40.0 +12.6 20 +40 +62 опасность
солнечного
удара
1007.7 984.4
00 18.06 ЮЗ 2 12 км ясно +38.4 +13.2 22 +38 +43 очень
жарко
1006.1 983.0 +19.5 +41.5
06 18.06 штиль 0 8000 м ясно +29.0 +9.0 29 +29 +29 жарко 1009.5 986.1 +41.5
15 18.06 В 1 12 км 1/0
[Ci fib]
+27.6 +10.2 34 +28 +35 жарко 1011.9 987.9
18 18.06 штиль 0 12 км 5/0
[Ci sp]
+37.0 +7.3 16 +35 +59 опасность
солнечного
удара
1012.1 988.4 +18.5 +37.0
21 18.06 З 1 12 км 3/0
[Ci fib]
+39.6 +4.5 12 +37 +58 опасность
солнечного
удара
1009.8 986.5
00 19.06 ЮЗ 3 12 км 4/0
[Ci fib]
+38.6 +9.1 17 +37 +41 очень
жарко
1008.3 985.2 +18.5 +41.0
03 19.06 ЮЗ 3 12 км 10/0
[Ci]
+34.2 +11.5 25 +34 +34 очень
жарко
1009.5 986.2
06 19.06 ЮЗ 1 8000 м 6/0
[Ci]
+30.2 +15.0 40 +33 +33 душно 1011.2 987.9 +41.0
15 19.06 СВ 1 12 км 4/0
[Ci sp]
+27.4 +8.0 29 +27 +34 жарко 1012.7 989.0
21 19.06 З 2 12 км 3/0
[Ci fib]
+40.8 +5.2 11 +38 +56 опасность
солнечного
удара
1009.8 986.5
00 20.06 Ю 2 12 км 1/0
[Ci fib]
+39.4 +6.0 13 +37 +42 очень
жарко
1008.1 985.1 +17.0 +42.0
03 20.06 ЮЗ 2 12 км ясно +34.6 -0.3 11 +31 +31 жарко 1009.3 986.1
06 20.06 ЮЗ 1 8000 м ясно +25.8 +3.2 23 +25 +25 комфорт 1010.8 987.5 +42.0
15 20.06 В 1 12 км ясно +27.6 +6.3 26 +27 +34 жарко 1011.8 988.0
18 20.06 ЮЗ 1 12 км ясно +38.8 +5.5 13 +36 +59 опасность
солнечного
удара
1011.1 987.4 +17.0 +38.8
21 20.06 ЮЗ 2 12 км ясно +40.8 +8.9 15 +39 +58 опасность
солнечного
удара
1008.0 985.2
00 21.06 ЮЗ 2 12 км ясно +40.2 +5.8 12 +37 +43 очень
жарко
1006.5 983.8 +17.0 +42.0
03 21.06 ЮЗ 2 12 км ясно +35.0 +3.6 14 +32 +32 жарко 1007.5 984.4
06 21.06 штиль 0 8000 м ясно +31.0 +5.5 20 +29 +29 жарко 1008.5 985.3 +42.0
15 21.06 В 1 12 км ясно +29.8 +9.9 29 +30 +37 жарко 1009.9 986.3
18 21.06 Ю 1 12 км ясно +36.4 +10.5 21 +35 +58 опасность
солнечного
удара
1009.8 986.3 +24.5 +36.4
21 21.06 З 3 12 км ясно +39.4 +1.0 9 +36 +52 опасность
солнечного
удара
1007.9 984.7
00 22.06 ЮЗ 2 12 км ясно +38.8 -0.6 8 +35 +40 очень
жарко
1006.6 983.6 +24.5 +40.0
03 22.06 ЮЗ 2 12 км ясно +33.8 +3.0 14 +31 +31 жарко 1007.2 984.5
06 22.06 штиль 0 8000 м ясно +29.0 +4.1 20 +27 +27 жарко 1008.9 985.6 +40.0
15 22.06 СВ 1 12 км 4/0
[Ci fib]
+25.0 +10.8 41 +26 +33 жарко 1010.8 986.7
18 22.06 ЮЗ 1 12 км 4/0
[Ci fib]
+33.2 +11.8 27 +33 +54 опасность
солнечного
удара
1010.8 987.0 +21.5 +33.2
18 23.06 нст 1 12 км ясно +35.6 +5.5 16 +33 +56 опасность
солнечного
удара
1011.5 988.1 +20.5 +35.6
15 24.06 СВ 1 12 км ясно +25.6 +7.2 31 +26 +33 жарко 1011.2 987.1

 

Местоположение метеостанции Эрмосильо (Мексика): широта 29.09 долгота -111.05 высота над уровнем моря 191 м.

В архиве по умолчанию представлена погода в Эрмосильо за последнюю неделю. Архивные данные за месяц целиком и за предыдущие месяцы, начиная с января 2011 года, Вы можете получить, выбрав интересующий диапазон дат из раскрывающегося списка и нажав кнопку "Ввод!".


*Определитесь, кто Вы:
робот инопланетянин человек

Внимание! Время в таблицах - всемирное. Для получения местного времени необходимо прибавить поправку, которая равна -7 ч.

Смотрите также архив погоды в соседних городах и на ближайших метеорологических станциях:

Погода в Эрмосильо Магна (Мексика) (10 км)
Погода в Гуаймасе (Мексика) (131 км)
Погода в Эмпальме (Мексика) (131 км)
Погода в Накосари де Гарсия (Мексика) (194 км)
Погода в Альтаре (Мексика) (196 км)
Погода в Сьюдад-Обрегоне (Мексика) (224 км)
Погода в Санта-Розалии (Мексика) (233 км)
Погода в Темосачи (Мексика) (316 км)
Погода в Нуэво-Касас-Грандесе (Мексика) (336 км)
Погода в Лорето (Мексика) (342 км)

Пояснения к столбцам:

Ветер - указаны скорость ветра в м/с - средняя за 10 мин, порывы в срок и между сроками (в фигурных скобках) и направление, откуда дует ветер: С - северный, СВ - северо-восточный, В - восточный, ЮВ - юго-восточный, Ю - южный, ЮЗ - юго-западный, З - западный, СЗ - северо-западный.
Видимость - горизонтальная дальность видимости в метрах или километрах. При видимости от 1 до 10 км при отсутствии осадков обычно наблюдается дымка, при ухудшении видимости до 1 км и менее - туман. В сухую погоду видимость может ухудшаться дымом, пылью или мглою.
Явления - указаны атмосферные явления, наблюдавшиеся в срок или в последний час перед сроком; фигурными скобками обозначены явления, наблюдавшиеся между сроками (за 1-3 часа до срока); квадратными скобками обозначены град или гололедные отложения с указанием их диаметра в мм.
Облачность - указаны через наклонную черту общая и нижняя облачность в баллах и высота нижней границы облаков в метрах; квадратными скобками обозначены формы облаков: Ci - перистые, Cs - перисто-слоистые, Cc - перисто-кучевые, Ac - высококучевые, As - высокослоистые, Sc - слоисто-кучевые, Ns - слоисто-дождевые, Cu - кучевые, Cb - кучево-дождевые. Подробнее классификацию облаков см. в Атласе облаков (PDF).
T - Температура воздуха - температура, измеренная на высоте 2 м над землей.
Td - Температура точки росы - температура, при понижении до которой содержащийся в воздухе водяной пар достигнет насыщения.
f - Относительная влажность воздуха - влажноcть воздуха, измеренная на высоте 2 м над землей.
Te - Эффективная температура - температура, которую ощущает одетый по сезону человек в тени. Характеристика душности погоды. При расчете учитывается влияние влажности воздуха и скорости ветра на теплоощущения человека.
Tes - Эффективная температура на солнце - температура, которую ощущает человек, с поправкой на солнечный нагрев. Характеристика знойности погоды. Зависит от высоты солнца над горизонтом, облачности и скорости ветра. Ночью, в пасмурную погоду, а также при ветре 12 м/с и более поправка равна нулю.
P - Атмосферное давление - приведенное к уровню моря атмосферное давление.
Po - Атмосферное давление - измеренное на уровне метеостанции атмосферное давление.
Tmin - Минимальная температура - минимум температуры воздуха на высоте 2 м над землей.
Tmax - Максимальная температура - максимум температуры воздуха на высоте 2 м над землей.
R - Количество осадков - Количество выпавших осадков за период времени, мм. При наведении курсора мыши на число - период времени, за который выпало указанное количество осадков.
R24 - Количество осадков - Количество выпавших осадков за 24 часа, мм.
S - Снежный покров - Высота снежного покрова, см. При наведении курсора мыши на число - состояние снежного покрова и степень покрытия местности в баллах.